sat.trackr.live / text

‹ back to catalog

ONEWEB-0511

NORAD 54129 · 2022-138S

PAYLOAD ACTIVE UNKNOWN

§ Identity

Operator
Country
UK
Launch date
2022-10-22
Launch site
SRILR
Launch vehicle
Mass (kg)
RCS (m²)

Purposes: comms

External: N2YO · Heavens-Above · Gunter

§ Orbital elements

Epoch: 2026-05-25T04:36:38.399904Z

Period
109.11 min
Inclination
87.9157°
Eccentricity
0.0002019
Mean motion
13.19724411 rev/d
Perigee alt
1,184.2 km
Apogee alt
1,187.3 km
Semi-major
7,563.9 km
B*
6.2020e-5
RAAN
309.5507°
Arg perigee
86.8034°
Mean anomaly
273.3330°
Rev number
17,380

§ Raw data

ONEWEB-05111 54129U 22138S   26145.19211111  .00000038  00000+0  62020-4 0  99962 54129  87.9157 309.5507 0002019  86.8034 273.3330 13.19724411173803

JSON: /api/v1/satellites/54129 · /tle

For live sub-satellite position, see the globe view (requires WebGL).

§ Visibility from observer

Set your observer location to see the next 7 days of passes ≥ 10°. The values pass through the URL so the page stays shareable.

No JS? Fill the form by hand. The geolocation button needs JavaScript.